Terminal Aerodrome Forecast
Issued by NWS

Home | Current Version | Previous Version | Text Only | Print | Product List | Glossary On
Versions: 1 2 3 4 5 6 7 8 9 10 11 12 13 14 15 16 17 18 19 20 21 22 23 24
000
FTUS43 KDVN 241700 RRA
TAFCID
TAF
KCID 241742Z 2418/2518 29025G32KT 5SM -FZDZ BR BKN010 OVC012
      TEMPO 2418/2419 2SM -FZRA
     FM242000 29015G25KT 6SM -SHSN BKN015 OVC020
     FM250300 30015KT P6SM VCSH BKN030
     FM250600 30012KT P6SM FEW015 SCT030=

USA.gov is the U.S. government's official web portal to all federal, state and local government web resources and services.